Location: Unspecified
(56.4423°S, 0.0000°E)
Time: 13:29:47
(UTC+00:00)

STRAND 1 - Visible Passes

Search period start: 05 April 2026 00:00
Search period end: 15 April 2026 00:00
Orbit: 761 x 775 km, 98.4° (Epoch: 28 March)

Date Brightness Start Highest point End Pass type
(mag) Time Alt. Az. Time Alt. Az. Time Alt. Az.
5 Apr ? 05:11:55 10° SSE 05:16:32 30° E 05:21:04 10° NNE visible
5 Apr ? 18:15:30 10° NW 18:19:20 20° W 18:23:11 10° SW visible
6 Apr ? 04:36:41 10° SE 04:40:07 17° E 04:43:31 10° NE visible
7 Apr ? 05:38:52 10° SSE 05:43:55 47° E 05:48:54 10° N visible
7 Apr ? 18:44:32 10° WNW 18:46:56 13° W 18:49:21 10° SW visible
8 Apr ? 05:03:16 10° SE 05:07:39 27° E 05:11:59 10° NNE visible
8 Apr ? 18:06:19 10° NW 18:10:26 23° W 18:14:35 10° SW visible
9 Apr ? 04:28:13 10° SE 04:31:11 15° E 04:34:08 10° ENE visible
10 Apr ? 05:30:08 10° SSE 05:35:04 41° E 05:39:56 10° NNE visible
10 Apr ? 18:35:01 10° WNW 18:37:59 15° W 18:41:00 10° SW visible
11 Apr ? 04:54:37 10° SE 04:58:46 23° E 05:02:51 10° NE visible
11 Apr ? 17:57:11 10° NNW 18:01:32 27° W 18:05:57 10° SSW visible
12 Apr ? 04:19:53 10° SE 04:22:15 13° E 04:24:37 10° ENE visible
12 Apr ? 05:57:11 10° SSE 06:02:23 63° ENE 06:07:31 10° N visible
13 Apr ? 05:21:25 10° SSE 05:26:12 35° E 05:30:56 10° NNE visible
13 Apr ? 18:25:39 10° NW 18:29:04 18° W 18:32:31 10° SW visible
14 Apr ? 04:46:01 10° SE 04:49:51 20° E 04:53:39 10° NE visible
14 Apr ? 17:48:06 10° NNW 17:52:39 31° W 17:57:17 10° SSW visible
